Volver al catálogo

COSMOS 2595

GLONASS

ActivoNavegaciónMEO
NORAD 65590·PAYLOAD·🇷🇺 Russia

Lanzado Sep 13, 2025 desde Plesetsk Cosmodrome

Loading…

Próximos Pases (próximas 24 horas)

TLE

ActualizadoSource: CelesTrak SupGP

Época: Sep 12, 2026, 23:59 UTC

1 65590C 25206B   26255.99979167  .00000000  00000+0  00000+0 0  2550
2 65590  64.5780 311.9242 0012323 301.6845 256.9342  2.13100834    11

Sigue COSMOS 2595 en tiempo real con AllMySat

Download on the App Store